Regional Weather Roundup
Issued by NWS Little Rock, AR

Home | Current Version | Previous Version | Graphics & Text | Print | Product List | Glossary On
Versions: 1 2 3 4 5 6 7 8 9 10 11 12 13 14 15 16 17 18 19 20 21 22 23 24 25 26 27 28 29 30 31 32 33 34 35 36 37 38 39 40 41 42 43 44 45 46 47 48 49 50
000
ASUS44 KLZK 072300
RWRLZK
ARKANSAS STATE WEATHER ROUNDUP
NATIONAL WEATHER SERVICE LITTLE ROCK AR
ISSUED BY NATIONAL WEATHER SERVICE MEMPHIS TN
600 PM CDT TUE JUL 07 2015

NOTE: "FAIR" INDICATES FEW OR NO CLOUDS BELOW 12,000 FEET WITH NO
SIGNIFICANT WEATHER AND/OR OBSTRUCTIONS TO VISIBILITY.

ARZ001-003-010-029-080000-
NORTHWEST ARKANSAS

CITY           SKY/WX    TMP DP  RH WIND       PRES   REMARKS
FORT SMITH     CLOUDY    76  71  85 E3        29.97F
HARRISON       CLOUDY    74  72  93 SE3       30.01S
BENTONVILLE    CLOUDY    73  70  88 CALM      30.00S
SILOAM SPGS    CLOUDY    73  68  83 S5        30.00R
HIGHFILL       CLOUDY    74  73  97 S5        29.99F
SPRINGDALE     CLOUDY    73  72  94 SW6       30.02S
$$

ARZ004-005-016-080000-
NORTH CENTRAL ARKANSAS

CITY           SKY/WX    TMP DP  RH WIND       PRES   REMARKS
BATESVILLE     CLOUDY    73  70  88 W17       30.03R THUNDER
FLIPPIN        CLOUDY    75  72  88 CALM      29.96F
MTN HOME       CLOUDY    74  72  93 S5        29.99F
$$

ARZ040-041-080000-
WEST CENTRAL ARKANSAS

CITY           SKY/WX    TMP DP  RH WIND       PRES   REMARKS
MOUNT IDA      PTSUNNY   81  75  82 NW3       29.96F
$$

ARZ017-025-026-028-080000-
NORTHEAST ARKANSAS

CITY           SKY/WX    TMP DP  RH WIND       PRES   REMARKS
JONESBORO      TSTM      74  72  93 VRB7      29.98S FOG
WALNUT RIDGE   CLOUDY    77  72  83 S6        29.98R
BLYTHEVILLE    CLOUDY    86  76  71 SW10      29.98R HX  96
$$

ARZ022-033-042-044-080000-
CENTRAL ARKANSAS

CITY           SKY/WX    TMP DP  RH WIND       PRES   REMARKS
LITTLE ROCK    PTSUNNY   89  71  55 S9        29.96F HX  95
JACKSONVILLE   PTSUNNY   89  74  60 S8        29.96F HX  99
SEARCY         PTSUNNY   87  74  64 SW5       29.99R HX  95
HOT SPRINGS    PTSUNNY   89  72  56 SW12G20   29.97F HX  96
RUSSELLVILLE   CLOUDY    78  75  90 CALM      29.98S
$$

ARZ036-080000-
EAST ARKANSAS

CITY           SKY/WX    TMP DP  RH WIND       PRES   REMARKS
WEST MEMPHIS   PTSUNNY   85  75  72 SW10G17   29.98S HX  93
$$

ARZ050-070-073-080000-
SOUTHWEST ARKANSAS

CITY           SKY/WX    TMP DP  RH WIND       PRES   REMARKS
TEXARKANA      MOSUNNY   90  74  59 S10       29.95F HX  99
EL DORADO      SUNNY     88  71  57 S8        29.98F HX  94
DEQUEEN        TSTM      79  75  87 S20G36    29.94R VSB 1/2
$$

ARZ056-057-069-080000-
SOUTHEAST ARKANSAS

CITY           SKY/WX    TMP DP  RH WIND       PRES   REMARKS
PINE BLUFF     MOSUNNY   90  74  59 S13       29.98F HX  99
STUTTGART      MOSUNNY   90  73  58 MISG      29.97S HX  98
MONTICELLO     SUNNY     91  74  57 S7        29.98F HX 100
$$



USA.gov is the U.S. government's official web portal to all federal, state and local government web resources and services.